HAZ3711 ZGGG-ZJHK

Flight info

Callsign HAZ3711
Flight time 1h 6m
Altitude 27600
Route VIBOS9 VIBOS R473 ZUH R200 BIGRO G221 GIVIV W605 DOMGO DOMGO9XA
Aircraft A320/M-SDE3FGHIRWY/LB1

Departure

Time 2026-05-09 05:34
Airport Guangzhou Baiyun International Airport (ZGGG)

Arrival

Time 2026-05-09 06:40
Airport Haikou Meilan International Airport (ZJHK)
Time Latitude Longitude Altitude Speed Heading
2026-05-09 04:59 23.38862 113.30251 51 ft 0 kts 208°
2026-05-09 05:24 23.38881 113.30262 51 ft 4 kts 208°
2026-05-09 05:24 23.38903 113.30275 55 ft 2 kts 208°
2026-05-09 05:25 23.38925 113.30284 53 ft 4 kts 171°
2026-05-09 05:25 23.38946 113.30271 55 ft 4 kts 124°
2026-05-09 05:25 23.38953 113.30258 50 ft 0 kts 117°
2026-05-09 05:28 23.38950 113.30265 56 ft 3 kts 117°
2026-05-09 05:28 23.38930 113.30308 54 ft 9 kts 117°
2026-05-09 05:29 23.38891 113.30390 55 ft 15 kts 117°
2026-05-09 05:29 23.38814 113.30465 54 ft 18 kts 198°
2026-05-09 05:29 23.38708 113.30439 57 ft 17 kts 193°
2026-05-09 05:29 23.38578 113.30404 58 ft 22 kts 194°
2026-05-09 05:30 23.38422 113.30362 52 ft 19 kts 195°
2026-05-09 05:30 23.38292 113.30327 54 ft 21 kts 194°
2026-05-09 05:30 23.38148 113.30288 55 ft 22 kts 194°
2026-05-09 05:30 23.37992 113.30246 54 ft 24 kts 194°
2026-05-09 05:31 23.37826 113.30201 52 ft 22 kts 194°
2026-05-09 05:31 23.37749 113.30201 55 ft 4 kts 159°
2026-05-09 05:31 23.37735 113.30205 55 ft 2 kts 163°
2026-05-09 05:31 23.37706 113.30217 55 ft 7 kts 157°
2026-05-09 05:32 23.37650 113.30263 54 ft 13 kts 127°
2026-05-09 05:32 23.37621 113.30359 52 ft 16 kts 102°
2026-05-09 05:32 23.37591 113.30491 55 ft 11 kts 104°
2026-05-09 05:32 23.37641 113.30554 57 ft 15 kts 16°
2026-05-09 05:33 23.37688 113.30566 52 ft 9 kts 13°
2026-05-09 05:33 23.37999 113.30650 53 ft 83 kts 14°
2026-05-09 05:33 23.38768 113.30858 60 ft 142 kts 14°
2026-05-09 05:33 23.39875 113.31169 231 ft 174 kts 15°
2026-05-09 05:34 23.41056 113.31495 959 ft 177 kts 14°
2026-05-09 05:34 23.42250 113.31829 1737 ft 177 kts 16°
2026-05-09 05:34 23.43487 113.32194 2218 ft 195 kts 16°
2026-05-09 05:34 23.44877 113.32611 2596 ft 219 kts 16°
2026-05-09 05:35 23.46417 113.33073 3170 ft 236 kts 16°
2026-05-09 05:35 23.48030 113.33554 3924 ft 245 kts 15°
2026-05-09 05:35 23.49699 113.34051 4734 ft 252 kts 15°
2026-05-09 05:35 23.51408 113.34561 5576 ft 257 kts 14°
2026-05-09 05:36 23.53151 113.35080 6396 ft 262 kts 13°
2026-05-09 05:36 23.54923 113.35607 7206 ft 265 kts 13°
2026-05-09 05:36 23.56732 113.36040 8035 ft 268 kts
2026-05-09 05:36 23.58579 113.36394 8906 ft 271 kts
2026-05-09 05:37 23.60457 113.36512 9716 ft 272 kts 347°
2026-05-09 05:37 23.62175 113.35722 10454 ft 269 kts 319°
2026-05-09 05:37 23.63383 113.34133 10850 ft 284 kts 292°
2026-05-09 05:37 23.63845 113.31999 11097 ft 305 kts 277°
2026-05-09 05:38 23.64152 113.29615 11309 ft 329 kts 277°
2026-05-09 05:38 23.64482 113.27063 11470 ft 352 kts 278°
2026-05-09 05:38 23.64837 113.24375 11907 ft 362 kts 278°
2026-05-09 05:38 23.65207 113.21635 12523 ft 366 kts 278°
2026-05-09 05:39 23.65431 113.18862 13162 ft 370 kts 268°
2026-05-09 05:39 23.64941 113.16103 13792 ft 375 kts 251°
2026-05-09 05:39 23.63683 113.13602 14356 ft 381 kts 234°
2026-05-09 05:39 23.61749 113.11603 14923 ft 388 kts 217°
2026-05-09 05:40 23.59442 113.10062 15516 ft 390 kts 213°
2026-05-09 05:40 23.57100 113.08551 16091 ft 392 kts 213°
2026-05-09 05:40 23.54737 113.07042 16664 ft 395 kts 213°
2026-05-09 05:40 23.52356 113.05527 17226 ft 397 kts 212°
2026-05-09 05:41 23.49958 113.04004 17791 ft 400 kts 212°
2026-05-09 05:41 23.47556 113.02475 18331 ft 402 kts 212°
2026-05-09 05:41 23.45133 113.00931 18793 ft 404 kts 213°
2026-05-09 05:41 23.42697 112.99376 19241 ft 407 kts 213°
2026-05-09 05:42 23.40250 112.97811 19692 ft 409 kts 213°
2026-05-09 05:42 23.37794 112.96242 20127 ft 411 kts 213°
2026-05-09 05:42 23.35326 112.94665 20553 ft 413 kts 213°
2026-05-09 05:42 23.32836 112.93075 20994 ft 415 kts 213°
2026-05-09 05:43 23.30338 112.91480 21417 ft 418 kts 213°
2026-05-09 05:43 23.27825 112.89878 21824 ft 420 kts 212°
2026-05-09 05:43 23.25296 112.88271 22226 ft 422 kts 212°
2026-05-09 05:43 23.22757 112.86660 22614 ft 424 kts 212°
2026-05-09 05:44 23.20205 112.85039 22975 ft 426 kts 212°
2026-05-09 05:44 23.17641 112.83405 23325 ft 428 kts 212°
2026-05-09 05:44 23.15072 112.81769 23653 ft 430 kts 212°
2026-05-09 05:44 23.12488 112.80127 23914 ft 432 kts 212°
2026-05-09 05:45 23.09882 112.78475 24178 ft 433 kts 212°
2026-05-09 05:45 23.08155 112.77382 24355 ft 434 kts 212°
2026-05-09 05:45 23.04657 112.75164 24694 ft 437 kts 212°
2026-05-09 05:45 23.02916 112.74056 24853 ft 438 kts 212°
2026-05-09 05:46 23.00282 112.72382 25096 ft 440 kts 213°
2026-05-09 05:46 22.97632 112.70700 25318 ft 442 kts 212°
2026-05-09 05:46 22.94966 112.69013 25544 ft 445 kts 212°
2026-05-09 05:46 22.92288 112.67323 25772 ft 447 kts 212°
2026-05-09 05:47 22.89599 112.65625 25996 ft 449 kts 212°
2026-05-09 05:47 22.86894 112.63916 26226 ft 451 kts 213°
2026-05-09 05:47 22.84175 112.62198 26446 ft 453 kts 213°
2026-05-09 05:47 22.81449 112.60475 26675 ft 454 kts 213°
2026-05-09 05:48 22.78711 112.58745 26880 ft 456 kts 213°
2026-05-09 05:48 22.75965 112.57010 27082 ft 458 kts 213°
2026-05-09 05:48 22.73209 112.55268 27274 ft 459 kts 213°
2026-05-09 05:48 22.70448 112.53522 27435 ft 461 kts 213°
2026-05-09 05:49 22.67662 112.51767 27591 ft 464 kts 213°
2026-05-09 05:49 22.64873 112.50013 27648 ft 464 kts 213°
2026-05-09 05:49 22.62118 112.48283 27648 ft 464 kts 213°
2026-05-09 05:49 22.59326 112.46529 27645 ft 464 kts 213°
2026-05-09 05:50 22.56533 112.44771 27645 ft 464 kts 213°
2026-05-09 05:50 22.53706 112.42988 27646 ft 465 kts 213°
2026-05-09 05:50 22.50949 112.41251 27646 ft 465 kts 213°
2026-05-09 05:50 22.48151 112.39495 27643 ft 465 kts 213°
2026-05-09 05:51 22.45352 112.37744 27643 ft 465 kts 213°
2026-05-09 05:51 22.42541 112.35984 27639 ft 470 kts 212°
2026-05-09 05:51 22.39701 112.34200 27644 ft 473 kts 212°
2026-05-09 05:51 22.36851 112.32406 27641 ft 476 kts 212°
2026-05-09 05:52 22.33976 112.30599 27642 ft 478 kts 212°
2026-05-09 05:52 22.31093 112.28792 27641 ft 480 kts 212°
2026-05-09 05:52 22.28201 112.26980 27636 ft 481 kts 212°
2026-05-09 05:52 22.25298 112.25164 27637 ft 482 kts 212°
2026-05-09 05:53 22.22398 112.23350 27637 ft 483 kts 212°
2026-05-09 05:53 22.19487 112.21529 27638 ft 483 kts 212°
2026-05-09 05:53 22.16585 112.19713 27637 ft 483 kts 212°
2026-05-09 05:53 22.13673 112.17891 27630 ft 483 kts 212°
2026-05-09 05:54 22.10765 112.16078 27630 ft 483 kts 212°
2026-05-09 05:54 22.07861 112.14266 27629 ft 483 kts 212°
2026-05-09 05:54 22.04954 112.12453 27628 ft 482 kts 212°
2026-05-09 05:54 22.02047 112.10642 27627 ft 482 kts 211°
2026-05-09 05:55 21.99141 112.08837 27626 ft 482 kts 212°
2026-05-09 05:55 21.96241 112.07035 27627 ft 482 kts 212°
2026-05-09 05:55 21.93337 112.05228 27618 ft 481 kts 212°
2026-05-09 05:55 21.90439 112.03420 27619 ft 481 kts 212°
2026-05-09 05:56 21.87544 112.01617 27611 ft 481 kts 211°
2026-05-09 05:56 21.84644 111.99813 27620 ft 482 kts 211°
2026-05-09 05:56 21.81740 111.98008 27618 ft 482 kts 211°
2026-05-09 05:56 21.78835 111.96203 27618 ft 482 kts 211°
2026-05-09 05:57 21.75930 111.94402 27620 ft 482 kts 211°
2026-05-09 05:57 21.73024 111.92603 27616 ft 482 kts 211°
2026-05-09 05:57 21.70151 111.90822 27613 ft 482 kts 211°
2026-05-09 05:57 21.67208 111.88996 27613 ft 482 kts 211°
2026-05-09 05:58 21.64343 111.87216 27612 ft 483 kts 211°
2026-05-09 05:58 21.61434 111.85411 27614 ft 483 kts 211°
2026-05-09 05:58 21.58565 111.83540 27606 ft 482 kts 216°
2026-05-09 05:58 21.55999 111.81269 27610 ft 472 kts 225°
2026-05-09 05:59 21.53817 111.78671 27612 ft 466 kts 230°
2026-05-09 05:59 21.51717 111.76025 27613 ft 464 kts 230°
2026-05-09 05:59 21.49628 111.73390 27610 ft 463 kts 230°
2026-05-09 05:59 21.47538 111.70756 27504 ft 463 kts 230°
2026-05-09 06:00 21.45451 111.68129 27257 ft 463 kts 230°
2026-05-09 06:00 21.43361 111.65502 27016 ft 463 kts 230°
2026-05-09 06:00 21.41271 111.62877 26777 ft 463 kts 230°
2026-05-09 06:00 21.39175 111.60248 26540 ft 464 kts 230°
2026-05-09 06:01 21.37078 111.57615 26305 ft 464 kts 230°
2026-05-09 06:01 21.34981 111.54980 26074 ft 465 kts 230°
2026-05-09 06:01 21.32909 111.52375 25836 ft 466 kts 230°
2026-05-09 06:01 21.30803 111.49729 25609 ft 467 kts 229°
2026-05-09 06:02 21.28692 111.47081 25382 ft 467 kts 229°
2026-05-09 06:02 21.26574 111.44432 25151 ft 468 kts 229°
2026-05-09 06:02 21.24455 111.41789 24931 ft 468 kts 229°
2026-05-09 06:02 21.22332 111.39137 24714 ft 469 kts 229°
2026-05-09 06:03 21.20205 111.36479 24493 ft 470 kts 229°
2026-05-09 06:03 21.18078 111.33825 24270 ft 470 kts 229°
2026-05-09 06:03 21.15948 111.31167 24053 ft 471 kts 229°
2026-05-09 06:03 21.13810 111.28500 23835 ft 471 kts 229°
2026-05-09 06:04 21.11705 111.25872 23618 ft 472 kts 229°
2026-05-09 06:04 21.09566 111.23198 23366 ft 472 kts 229°
2026-05-09 06:04 21.07433 111.20531 23118 ft 472 kts 229°
2026-05-09 06:04 21.05297 111.17867 22864 ft 470 kts 229°
2026-05-09 06:05 21.03164 111.15211 22601 ft 470 kts 229°
2026-05-09 06:05 21.01040 111.12567 22352 ft 467 kts 229°
2026-05-09 06:05 20.98931 111.09939 22102 ft 465 kts 229°
2026-05-09 06:05 20.96721 111.07431 21847 ft 463 kts 222°
2026-05-09 06:06 20.94194 111.05307 21606 ft 462 kts 214°
2026-05-09 06:06 20.91401 111.03622 21363 ft 461 kts 205°
2026-05-09 06:06 20.88480 111.02237 21123 ft 459 kts 204°
2026-05-09 06:06 20.85562 111.00861 20884 ft 457 kts 205°
2026-05-09 06:07 20.82659 110.99489 20647 ft 455 kts 205°
2026-05-09 06:07 20.79770 110.98116 20411 ft 454 kts 205°
2026-05-09 06:07 20.76886 110.96743 20176 ft 452 kts 205°
2026-05-09 06:07 20.74016 110.95377 19935 ft 452 kts 205°
2026-05-09 06:08 20.71148 110.94015 19716 ft 450 kts 205°
2026-05-09 06:08 20.68291 110.92663 19486 ft 449 kts 205°
2026-05-09 06:08 20.65440 110.91319 19258 ft 447 kts 205°
2026-05-09 06:08 20.62599 110.89980 19033 ft 446 kts 205°
2026-05-09 06:09 20.59783 110.88648 18806 ft 435 kts 205°
2026-05-09 06:09 20.57070 110.87363 18582 ft 419 kts 205°
2026-05-09 06:09 20.54453 110.86123 18361 ft 405 kts 205°
2026-05-09 06:09 20.51910 110.84928 18117 ft 393 kts 203°
2026-05-09 06:10 20.49341 110.84091 17848 ft 376 kts 193°
2026-05-09 06:10 20.46814 110.83749 17595 ft 360 kts 186°
2026-05-09 06:10 20.44331 110.83563 17348 ft 355 kts 186°
2026-05-09 06:10 20.41880 110.83376 17101 ft 351 kts 186°
2026-05-09 06:11 20.39450 110.83188 16851 ft 349 kts 187°
2026-05-09 06:11 20.37033 110.82996 16607 ft 348 kts 187°
2026-05-09 06:11 20.34612 110.82803 16363 ft 348 kts 187°
2026-05-09 06:11 20.32207 110.82615 16121 ft 347 kts 187°
2026-05-09 06:12 20.29802 110.82430 15879 ft 345 kts 187°
2026-05-09 06:12 20.27410 110.82242 15641 ft 346 kts 186°
2026-05-09 06:12 20.25014 110.82053 15408 ft 344 kts 186°
2026-05-09 06:12 20.22663 110.81672 15162 ft 340 kts 199°
2026-05-09 06:13 20.20550 110.80675 14939 ft 335 kts 214°
2026-05-09 06:13 20.18779 110.79106 14711 ft 331 kts 229°
2026-05-09 06:13 20.17479 110.77098 14484 ft 329 kts 244°
2026-05-09 06:13 20.16724 110.74810 14255 ft 328 kts 257°
2026-05-09 06:14 20.16232 110.72437 14027 ft 328 kts 257°
2026-05-09 06:14 20.15738 110.70071 13803 ft 328 kts 257°
2026-05-09 06:14 20.15245 110.67718 13552 ft 326 kts 257°
2026-05-09 06:14 20.14756 110.65361 13296 ft 324 kts 258°
2026-05-09 06:15 20.14283 110.63020 13046 ft 323 kts 258°
2026-05-09 06:15 20.13817 110.60683 12791 ft 323 kts 258°
2026-05-09 06:15 20.13355 110.58354 12544 ft 322 kts 258°
2026-05-09 06:15 20.12891 110.56023 12298 ft 322 kts 258°
2026-05-09 06:16 20.12425 110.53695 12062 ft 319 kts 258°
2026-05-09 06:16 20.11959 110.51386 11807 ft 319 kts 258°
2026-05-09 06:16 20.11495 110.49080 11563 ft 318 kts 258°
2026-05-09 06:16 20.11032 110.46780 11324 ft 318 kts 258°
2026-05-09 06:17 20.10567 110.44479 11088 ft 318 kts 258°
2026-05-09 06:17 20.10099 110.42180 10854 ft 319 kts 258°
2026-05-09 06:17 20.09632 110.39872 10621 ft 319 kts 258°
2026-05-09 06:17 20.09168 110.37571 10390 ft 318 kts 258°
2026-05-09 06:18 20.08701 110.35274 10165 ft 317 kts 258°
2026-05-09 06:18 20.08231 110.32986 9934 ft 315 kts 258°
2026-05-09 06:18 20.07770 110.30749 9805 ft 303 kts 258°
2026-05-09 06:18 20.07325 110.28596 9677 ft 296 kts 257°
2026-05-09 06:19 20.06884 110.26465 9534 ft 294 kts 257°
2026-05-09 06:19 20.06457 110.24391 9090 ft 299 kts 258°
2026-05-09 06:19 20.06016 110.22249 8440 ft 295 kts 257°
2026-05-09 06:19 20.05583 110.20144 7977 ft 284 kts 257°
2026-05-09 06:20 20.05177 110.18168 7811 ft 263 kts 257°
2026-05-09 06:20 20.04750 110.16384 7698 ft 242 kts 246°
2026-05-09 06:20 20.03831 110.14934 7584 ft 236 kts 221°
2026-05-09 06:20 20.02438 110.14008 7300 ft 241 kts 197°
2026-05-09 06:21 20.00786 110.13783 6903 ft 241 kts 178°
2026-05-09 06:21 19.99101 110.13801 6518 ft 241 kts 179°
2026-05-09 06:21 19.97466 110.13925 6136 ft 231 kts 162°
2026-05-09 06:21 19.96093 110.14756 5592 ft 229 kts 132°
2026-05-09 06:22 19.95341 110.16204 5121 ft 223 kts 101°
2026-05-09 06:22 19.95257 110.17829 4820 ft 222 kts 89°
2026-05-09 06:22 19.95269 110.19469 4524 ft 221 kts 90°
2026-05-09 06:22 19.95278 110.21097 4227 ft 218 kts 90°
2026-05-09 06:23 19.95285 110.22672 3947 ft 207 kts 89°
2026-05-09 06:23 19.95292 110.24170 3703 ft 197 kts 90°
2026-05-09 06:23 19.95298 110.25603 3452 ft 191 kts 89°
2026-05-09 06:23 19.95303 110.26993 3202 ft 183 kts 89°
2026-05-09 06:24 19.95309 110.28308 2980 ft 174 kts 89°
2026-05-09 06:24 19.95314 110.29561 2755 ft 166 kts 89°
2026-05-09 06:24 19.95319 110.30760 2554 ft 159 kts 89°
2026-05-09 06:24 19.95323 110.31902 2348 ft 150 kts 89°
2026-05-09 06:25 19.95327 110.32955 2171 ft 138 kts 89°
2026-05-09 06:25 19.95331 110.33965 1989 ft 135 kts 89°
2026-05-09 06:25 19.95335 110.34961 1820 ft 134 kts 89°
2026-05-09 06:25 19.95339 110.35946 1646 ft 133 kts 88°
2026-05-09 06:26 19.95343 110.36930 1466 ft 134 kts 89°
2026-05-09 06:26 19.95347 110.37919 1295 ft 133 kts 86°
2026-05-09 06:26 19.95350 110.38896 1136 ft 131 kts 86°
2026-05-09 06:26 19.95353 110.39865 962 ft 132 kts 89°
2026-05-09 06:27 19.95357 110.40835 811 ft 131 kts 88°
2026-05-09 06:27 19.95360 110.41813 647 ft 132 kts 89°
2026-05-09 06:27 19.95364 110.42808 478 ft 135 kts 90°
2026-05-09 06:27 19.95367 110.43806 283 ft 134 kts 88°
2026-05-09 06:28 19.95369 110.44789 120 ft 133 kts 89°
2026-05-09 06:28 19.95372 110.45752 119 ft 129 kts 90°
2026-05-09 06:28 19.95371 110.46855 387 ft 167 kts 88°
2026-05-09 06:28 19.95423 110.48093 1297 ft 166 kts 83°
2026-05-09 06:29 19.95607 110.49288 1914 ft 171 kts 85°
2026-05-09 06:29 19.95834 110.50599 2130 ft 193 kts 64°
2026-05-09 06:29 19.96803 110.51641 2452 ft 210 kts 29°
2026-05-09 06:29 19.98200 110.52120 2866 ft 218 kts 15°
2026-05-09 06:30 19.99702 110.52393 2969 ft 219 kts 11°
2026-05-09 06:30 20.01217 110.52561 2987 ft 220 kts 359°
2026-05-09 06:30 20.02657 110.52036 2989 ft 225 kts 324°
2026-05-09 06:30 20.03605 110.50721 2991 ft 229 kts 291°
2026-05-09 06:31 20.04012 110.49067 2984 ft 232 kts 282°
2026-05-09 06:31 20.04240 110.47375 2984 ft 230 kts 276°
2026-05-09 06:31 20.04335 110.45679 2982 ft 230 kts 271°
2026-05-09 06:31 20.04298 110.43973 2984 ft 231 kts 268°
2026-05-09 06:32 20.04226 110.42301 2980 ft 225 kts 268°
2026-05-09 06:32 20.04149 110.40636 2982 ft 227 kts 267°
2026-05-09 06:32 20.04073 110.38968 2978 ft 228 kts 267°
2026-05-09 06:33 20.03955 110.36143 2984 ft 228 kts 267°
2026-05-09 06:33 20.03870 110.33966 2976 ft 217 kts 267°
2026-05-09 06:33 20.03748 110.32393 2975 ft 210 kts 252°
2026-05-09 06:34 20.02166 110.30603 2982 ft 206 kts 197°
2026-05-09 06:34 20.00880 110.29925 2983 ft 207 kts 206°
2026-05-09 06:34 19.99633 110.29167 2981 ft 205 kts 208°
2026-05-09 06:34 19.98362 110.28498 2983 ft 204 kts 196°
2026-05-09 06:35 19.96994 110.28417 2854 ft 191 kts 160°
2026-05-09 06:35 19.95951 110.29068 2738 ft 161 kts 131°
2026-05-09 06:35 19.95424 110.30015 2636 ft 141 kts 105°
2026-05-09 06:35 19.95321 110.31019 2483 ft 135 kts 89°
2026-05-09 06:36 19.95324 110.32022 2328 ft 136 kts 89°
2026-05-09 06:36 19.95328 110.33018 2153 ft 135 kts 90°
2026-05-09 06:36 19.95332 110.34007 1982 ft 133 kts 89°
2026-05-09 06:36 19.95336 110.34993 1814 ft 133 kts 88°
2026-05-09 06:37 19.95339 110.35970 1643 ft 132 kts 88°
2026-05-09 06:37 19.95343 110.36951 1468 ft 132 kts 88°
2026-05-09 06:37 19.95347 110.37929 1298 ft 132 kts 86°
2026-05-09 06:37 19.95350 110.38895 1129 ft 131 kts 86°
2026-05-09 06:38 19.95353 110.39862 966 ft 131 kts 88°
2026-05-09 06:38 19.95357 110.40828 813 ft 132 kts 88°
2026-05-09 06:38 19.95360 110.41796 639 ft 131 kts 89°
2026-05-09 06:38 19.95363 110.42774 485 ft 134 kts 89°
2026-05-09 06:39 19.95367 110.43766 282 ft 133 kts 88°
2026-05-09 06:39 19.95371 110.44747 134 ft 132 kts 89°
2026-05-09 06:39 19.95378 110.45688 59 ft 115 kts 89°
2026-05-09 06:39 19.95376 110.46374 56 ft 68 kts 90°
2026-05-09 06:40 19.95377 110.46709 57 ft 32 kts 90°
2026-05-09 06:40 19.95369 110.46924 59 ft 27 kts 103°
2026-05-09 06:40 19.95311 110.47080 55 ft 21 kts 116°
2026-05-09 06:40 19.95247 110.47140 61 ft 12 kts 195°
2026-05-09 06:41 19.95208 110.47073 57 ft 11 kts 266°
2026-05-09 06:41 19.95206 110.46976 60 ft 16 kts 269°
2026-05-09 06:41 19.95207 110.46836 59 ft 22 kts 271°
2026-05-09 06:41 19.95206 110.46651 58 ft 27 kts 270°
2026-05-09 06:42 19.95206 110.46469 57 ft 22 kts 270°
2026-05-09 06:42 19.95205 110.46306 58 ft 16 kts 263°
2026-05-09 06:42 19.95116 110.46272 54 ft 16 kts 183°
2026-05-09 06:42 19.95049 110.46268 55 ft 8 kts 183°
2026-05-09 06:43 19.95039 110.46263 53 ft 3 kts 217°
2026-05-09 06:43 19.95019 110.46230 51 ft 5 kts 243°
2026-05-09 06:43 19.94997 110.46183 53 ft 6 kts 243°
2026-05-09 06:43 19.94991 110.46172 56 ft 2 kts 243°
2026-05-09 06:44 19.94987 110.46163 55 ft 1 kts 243°
2026-05-09 06:44 19.94986 110.46160 56 ft 0 kts 243°